Погода в Волыни

Россия / Рязанская область     54°26′28″N   39°31′05″E
темп.,
°C
ветер,
м/с
пор.,
м/с
влажн.,
%
обл.,
%
осадки,
мм/ч
давл.,
гПа
погр.,
м
17 апреля, сб
сб1700:00+11св3685100 0.2 1019146
03:00+10всв379374 0.6 1019232
06:00+9всв599651 0.0 1019292
09:00+11в61080100 0.1 1019549
12:00+16в81157100 0.2 10181250
15:00+18в7115085 1.9 10171916
18:00+11ю4693100 10.1 1017495
21:00+10вюв2397100 25.2 1017215
18 апреля, вс
вс1800:00+8юз3495100 11.7 1018225
03:00+8ю0193100 18.1 101992
06:00+7в2293100 0.5 101982
09:00+9всв4485100 1.2 1020513
12:00+9св558595 0.5 1020620
15:00+10всв577791 1.3 1020918
18:00+7всв6987100 1.0 1021605
21:00+6всв5887100 1.0 1022559
19 апреля, пн
пн1900:00+6всв4892100 0.1 1022372
03:00+6всв5995100 0.4 1022451
06:00+6всв5994100 0.4 1022448
09:00+6всв5994100 1.2 1022651
12:00+7всв5991100 0.5 1022736
15:00+7всв71085100 0.6 1022785
18:00+7в71286100 0.0 10221053
21:00+6в81382100 0.1 1022875
20 апреля, вт
вт2000:00+6в61277100 0.4 1021792
03:00+5в7148398 0.5 1020606
06:00+4в71487100 0.2 1019651
09:00+5в81590100 1.1 1017776
12:00+5в91791100 1.6 1016872
15:00+6в111991100 2.5 1012979
18:00+7в122192100 4.6 10081028
21:00+7вюв132592100 11.9 10051336
21 апреля, ср
ср2100:00+8вюв122291100 3.0 1003947
03:00+9юв9159488 3.3 1002754
06:00+8ююв61295100 4.5 1002693
09:00+8ююв91484100 6.6 10021151
12:00+6ююз91481100 0.3 10071043
15:00+8ююз81480100 0.3 10101388
18:00+9ююз71272100 0.0 10121000
21:00+7ю5128078 0.0 1014366